Tracking 27422 objects as of 31-May-2023
HD Live streaming from Space Station
objects crossing your sky now

USA 179

Track USA 179 now!
USA 179 is classified as:


NORAD ID: 28384
Int'l Code: 2004-034A
Perigee: 668.2 km
Apogee: 39,694.0 km
Inclination: 64.0 °
Period: 717.6 minutes
Semi major axis: 26552 km
RCS: Unknown
Launch date: August 31, 2004
Source: United States (US)
Launch site: AIR FORCE EASTERN TEST RANGE (AFETR)
Your satellite tracking list
Your tracking list is empty




NASA's NSSDC Master Catalog

Two Line Element Set (TLE):
1 28384U 04034A   22059.76923079 0.00001374  00000-0  00000-0 0    05
2 28384  63.9653  85.1266 7348903 266.2221  15.3275  2.00657329    09
Source of the keplerian elements: McCants